Voltar ao catálogo

SL-6 R/B(2)

AtivoHEO
NORAD 18883·ROCKET BODY·🇷🇺 Russia

Lançado Feb 26, 1988 de Plesetsk Cosmodrome

Loading…

Próximas Passagens (próximas 24 horas)

TLE

AtualizadoSource: Space-Track

Época: Sep 13, 2026, 19:21 UTC

1 18883U 88013C   26256.80643373  .00000704  00000-0  00000-0 0  9994
2 18883  64.4917 283.7907 6669832  22.8870 356.6530  2.04035945287089

Acompanhe SL-6 R/B(2) em tempo real com AllMySat

Download on the App Store